STARLINK-4066

decayed
NORAD ID: 53148 Int'l Des: 2022-083 Owner: SPXS Country: US Constellation: starlink
LEOCIRCULAR

关于 STARLINK-4066

正在加载描述...

高度历史

Altitude vs Time

uPlot chart will show altitude changes over time

两行轨道根数

1 53148U 22083S 24176.46868352 .99999999 12620-4 91329-3 0 9992
2 53148 53.1955 345.0653 0007400 186.5266 219.7641 16.52327078109250
Epoch: Jun 24, 2024 • Age: 10607 hours

当前状态

Position data unavailable
发射日期 Jul 17, 2022
运行时间 3.1 years
衰减日期 Jun 24, 2024
类型 internet

技术详情

分类 Payload
质量 297.00 kg
干质量 275.00 kg
总质量 297.00 kg
长度 0.20 m
直径 2.80 m
跨度 9.00 m
形状 Box + pan
制造商 SPXS
平台类型 Starlink
阶段状态 Unknown Transfer Status
所有者/国家 SPXS/US

大型星座

Loading constellations...